Вернуться в каталог

STARLINK-36157

АктивенСвязьVLEO
NORAD 66933·PAYLOAD·🇺🇸 United States

Запущен Dec 7, 2025 с Vandenberg Space Force Base

Loading…

Ближайшие Пролёты (ближайшие 24 часа)

TLE

СвежийSource: CelesTrak SupGP

Эпоха: Sep 15, 2026, 03:42 UTC

1 66933C 25286J   26258.15465278 -.00060178  00000+0 -17782-2 0  2589
2 66933  53.1585 194.8534 0001366  88.7065 314.7771 15.34416808    11

Отслеживайте STARLINK-36157 в реальном времени с AllMySat

Download on the App Store